This demonstration page uses our WeatherBlox Daily Observations layout. Learn more.

Left ArrowRight Arrow

Hourly Observations for September 25, 2022

Temp ( °F °C ) Dew Point ( °F °C ) Humidity (%) Winds ( mph kmh ) Pressure ( in mb ) Visibility ( mi km ) Precip ( " mm )
12:53 am 00:53 Clear 38 3.3 32 0 79 79 Calm 30.28 1025 10 16 0.00 0.00
1:53 am 01:53 Clear 38 3.3 33 0.6 82 82 Calm 30.28 1025 10 16 0.00 0.00
2:53 am 02:53 Clear 38 3.3 32 0 79 79 Calm 30.28 1026 10 16 0.00 0.00
3:53 am 03:53 Clear 36 2.2 31 -0.6 82 82 Calm 30.29 1026 10 16 0.00 0.00
4:53 am 04:53 Clear 34 1.1 30 -1.1 85 85 Calm 30.30 1026 10 16 0.00 0.00
5:53 am 05:53 Clear 34 1.1 30 -1.1 85 85 Calm 30.31 1027 10 16 0.00 0.00
6:53 am 06:53 Clear 34 1.1 30 -1.1 85 85 Calm 30.36 1028 10 16 0.00 0.00
7:53 am 07:53 Sunny 38 3.3 34 1.1 85 85 Calm 30.40 1029 10 16 0.00 0.00
8:53 am 08:53 Sunny 45 7.2 36 2.2 70 70 Calm 30.37 1029 10 16 0.00 0.00
9:53 am 09:53 Sunny 53 11.7 36 2.2 52 52 Calm 30.35 1028 10 16 0.00 0.00
10:53 am 10:53 Sunny 61 16.1 34 1.1 36 36 Calm 30.34 1027 10 16 0.00 0.00
11:53 am 11:53 Sunny 66 18.9 35 1.7 32 32 VRB 3 6 30.30 1026 10 16 0.00 0.00
12:53 pm 12:53 Sunny 69 20.6 33 0.6 26 26 VRB 5 7 30.29 1026 10 16 0.00 0.00
1:53 pm 13:53 Sunny 72 22.2 35 1.7 26 26 VRB 6 9 30.26 1025 10 16 0.00 0.00
2:53 pm 14:53 Sunny 74 23.3 32 0 21 21 Calm 30.23 1024 10 16 0.00 0.00
3:53 pm 15:53 Sunny 75 23.9 32 0 21 21 VRB 3 6 30.22 1023 10 16 0.00 0.00
4:53 pm 16:53 Sunny 75 23.9 31 -0.6 20 20 W 6 9 30.20 1023 10 16 0.00 0.00
5:53 pm 17:53 Sunny 73 22.8 34 1.1 24 24 SW 6 9 30.21 1023 10 16 0.00 0.00
6:53 pm 18:53 Sunny 65 18.3 39 3.9 38 38 WNW 3 6 30.24 1024 10 16 0.00 0.00
7:53 pm 19:53 Clear 55 12.8 36 2.2 48 48 Calm 30.27 1025 10 16 0.00 0.00
8:53 pm 20:53 Clear 50 10 38 3.3 63 63 Calm 30.28 1026 10 16 0.00 0.00
9:53 pm 21:53 Clear 48 8.9 38 3.3 68 68 Calm 30.26 1025 10 16 0.00 0.00
10:53 pm 22:53 Clear 43 6.1 36 2.2 76 76 Calm 30.26 1025 10 16 0.00 0.00
11:53 pm 23:53 Clear 44 6.7 38 3.3 79 79 Calm 30.25 1024 10 16 0.00 0.00

Powered by AerisWeather